Location: San Pelegr�n
(42.1868°N, 0.0079°E)
Time: 15:25:13
(UTC+00:00)

Cosmos 44 - Pass Details

Date: 24 January 2020
Orbit: 595 x 767 km, 65.1° (Epoch: 24 February)

Event Time Altitude Azimuth Distance (km) Brightness Sun altitude
Rises 18:16:36 0° 216° (SW) 2,969 7.4 -13.6°
Reaches altitude 10° 18:18:57 10° 219° (SW) 2,035 6.5 -14.0°
Maximum altitude 18:23:32 73° 304° (NW) 656 3.3 -14.8°
Enters shadow 18:27:17 14° 28° (NNE) 1,708 4.9 -15.5°
